Time,TemperatureF,DewpointF,PressureIn,WindDirection,WindDirectionDegrees,WindSpeedMPH,WindSpeedGustMPH,Humidity,HourlyPrecipIn,Conditions,Clouds,dailyrainin,SolarRadiationWatts/m^2,SoftwareType,DateUTC
2014-04-17 00:05:00,53.3,48.0,29.61,WSW,246,0.0,5.0,83,0.00,,,0.00,0,weatherlink.com 1.10,2014-04-17 07:05:00,
2014-04-17 00:20:00,53.2,48.0,29.61,WSW,246,0.0,1.0,82,0.00,,,0.00,0,weatherlink.com 1.10,2014-04-17 07:20:00,
2014-04-17 00:35:00,53.0,48.0,29.61,WSW,247,0.0,1.0,83,0.00,,,0.00,0,weatherlink.com 1.10,2014-04-17 07:35:00,
2014-04-17 00:50:00,53.2,48.0,29.61,WSW,247,0.0,0.0,82,0.00,,,0.00,0,weatherlink.com 1.10,2014-04-17 07:50:00,
2014-04-17 01:05:00,53.2,48.0,29.61,WSW,247,0.0,1.0,82,0.00,,,0.00,0,weatherlink.com 1.10,2014-04-17 08:05:00,
2014-04-17 01:20:00,53.1,48.0,29.60,WSW,247,0.0,0.0,82,0.00,,,0.00,0,weatherlink.com 1.10,2014-04-17 08:20:00,
2014-04-17 01:35:00,53.0,48.0,29.60,WSW,247,0.0,0.0,82,0.00,,,0.00,0,weatherlink.com 1.10,2014-04-17 08:35:00,
2014-04-17 01:50:00,52.5,48.0,29.60,WSW,247,0.0,0.0,84,0.00,,,0.00,0,weatherlink.com 1.10,2014-04-17 08:50:00,
2014-04-17 02:05:00,52.6,48.0,29.59,WSW,247,0.0,3.0,84,0.00,,,0.00,0,weatherlink.com 1.10,2014-04-17 09:05:00,
2014-04-17 02:20:00,52.4,48.0,29.59,WSW,247,0.0,0.0,84,0.00,,,0.00,0,weatherlink.com 1.10,2014-04-17 09:20:00,
2014-04-17 02:35:00,52.3,48.0,29.58,WSW,247,0.0,3.0,85,0.00,,,0.00,0,weatherlink.com 1.10,2014-04-17 09:35:00,
2014-04-17 02:50:00,52.1,48.0,29.59,WSW,246,0.0,1.0,85,0.00,,,0.00,0,weatherlink.com 1.10,2014-04-17 09:50:00,
2014-04-17 03:05:00,52.1,48.0,29.59,WSW,247,0.0,2.0,85,0.00,,,0.00,0,weatherlink.com 1.10,2014-04-17 10:05:00,
2014-04-17 03:20:00,52.2,48.0,29.58,WSW,246,0.0,2.0,86,0.00,,,0.00,0,weatherlink.com 1.10,2014-04-17 10:20:00,
2014-04-17 03:35:00,51.5,48.0,29.58,WSW,247,0.0,0.0,86,0.00,,,0.00,0,weatherlink.com 1.10,2014-04-17 10:35:00,
2014-04-17 03:52:00,51.1,47.0,29.58,WSW,247,0.0,1.0,87,0.00,,,0.00,0,weatherlink.com 1.10,2014-04-17 10:52:00,
2014-04-17 04:05:00,51.1,47.0,29.58,WSW,247,0.0,1.0,87,0.00,,,0.00,0,weatherlink.com 1.10,2014-04-17 11:05:00,
2014-04-17 04:20:00,51.4,48.0,29.57,WSW,247,0.0,1.0,87,0.00,,,0.00,0,weatherlink.com 1.10,2014-04-17 11:20:00,
2014-04-17 04:35:00,51.5,48.0,29.57,WSW,247,0.0,0.0,86,0.00,,,0.00,0,weatherlink.com 1.10,2014-04-17 11:35:00,
2014-04-17 04:50:00,51.7,48.0,29.57,WSW,247,0.0,2.0,86,0.00,,,0.00,0,weatherlink.com 1.10,2014-04-17 11:50:00,
2014-04-17 05:05:00,51.2,48.0,29.57,WSW,246,0.0,4.0,87,0.00,,,0.00,0,weatherlink.com 1.10,2014-04-17 12:05:00,
2014-04-17 05:20:00,51.6,48.0,29.57,WSW,246,0.0,0.0,88,0.00,,,0.00,0,weatherlink.com 1.10,2014-04-17 12:20:00,
2014-04-17 05:35:00,51.4,48.0,29.57,WSW,246,0.0,0.0,88,0.00,,,0.00,0,weatherlink.com 1.10,2014-04-17 12:35:00,
2014-04-17 05:50:00,51.3,48.0,29.57,WSW,246,0.0,1.0,88,0.00,,,0.00,0,weatherlink.com 1.10,2014-04-17 12:50:00,
2014-04-17 06:05:00,50.9,48.0,29.57,WSW,246,0.0,0.0,89,0.00,,,0.00,0,weatherlink.com 1.10,2014-04-17 13:05:00,
2014-04-17 06:20:00,51.1,48.0,29.57,WSW,246,0.0,0.0,89,0.00,,,0.00,0,weatherlink.com 1.10,2014-04-17 13:20:00,
2014-04-17 06:36:00,50.6,48.0,29.57,WSW,246,0.0,1.0,89,0.00,,,0.00,5,weatherlink.com 1.10,2014-04-17 13:36:00,
2014-04-17 06:51:00,51.4,49.0,29.58,WSW,246,0.0,0.0,90,0.00,,,0.00,16,weatherlink.com 1.10,2014-04-17 13:51:00,
2014-04-17 07:06:00,52.1,49.0,29.59,WSW,246,0.0,0.0,88,0.00,,,0.00,35,weatherlink.com 1.10,2014-04-17 14:06:00,
2014-04-17 07:21:00,52.7,49.0,29.59,WSW,238,2.0,6.0,87,0.00,,,0.00,70,weatherlink.com 1.10,2014-04-17 14:21:00,
2014-04-17 07:36:00,53.3,50.0,29.60,SW,236,4.0,11.0,87,0.00,,,0.00,104,weatherlink.com 1.10,2014-04-17 14:36:00,
2014-04-17 07:51:00,53.0,49.0,29.61,WSW,239,5.0,14.0,86,0.00,,,0.00,137,weatherlink.com 1.10,2014-04-17 14:51:00,
2014-04-17 08:06:00,53.4,50.0,29.61,SW,223,3.0,14.0,87,0.00,,,0.00,183,weatherlink.com 1.10,2014-04-17 15:06:00,
2014-04-17 08:21:00,54.0,50.0,29.62,WSW,254,6.0,13.0,86,0.00,,,0.00,243,weatherlink.com 1.10,2014-04-17 15:21:00,
2014-04-17 08:36:00,54.8,50.0,29.62,SW,214,5.0,14.0,84,0.00,,,0.00,251,weatherlink.com 1.10,2014-04-17 15:36:00,
2014-04-17 08:51:00,53.8,49.0,29.62,West,265,10.0,19.0,85,0.00,,,0.00,329,weatherlink.com 1.10,2014-04-17 15:51:00,
2014-04-17 09:06:00,54.7,50.0,29.62,WSW,246,3.0,18.0,84,0.00,,,0.00,401,weatherlink.com 1.10,2014-04-17 16:06:00,
2014-04-17 09:21:00,55.3,50.0,29.62,SSW,211,10.0,16.0,82,0.00,,,0.00,457,weatherlink.com 1.10,2014-04-17 16:21:00,
2014-04-17 09:36:00,56.2,50.0,29.62,West,261,4.0,19.0,80,0.00,,,0.00,496,weatherlink.com 1.10,2014-04-17 16:36:00,
2014-04-17 09:51:00,56.0,50.0,29.63,South,189,4.0,20.0,80,0.00,,,0.00,543,weatherlink.com 1.10,2014-04-17 16:51:00,
2014-04-17 10:06:00,56.6,51.0,29.63,SW,236,13.0,19.0,80,0.00,,,0.00,582,weatherlink.com 1.10,2014-04-17 17:06:00,
2014-04-17 10:21:00,57.3,51.0,29.62,South,180,3.0,16.0,78,0.00,,,0.00,624,weatherlink.com 1.10,2014-04-17 17:21:00,
2014-04-17 10:36:00,59.3,52.0,29.63,WSW,245,8.0,18.0,76,0.00,,,0.00,657,weatherlink.com 1.10,2014-04-17 17:36:00,
2014-04-17 10:51:00,59.3,51.0,29.63,West,276,6.0,15.0,74,0.00,,,0.00,694,weatherlink.com 1.10,2014-04-17 17:51:00,
2014-04-17 11:09:00,59.0,51.0,29.64,SSW,196,9.0,16.0,74,0.00,,,0.00,733,weatherlink.com 1.10,2014-04-17 18:09:00,
2014-04-17 11:22:00,59.0,51.0,29.64,SW,226,9.0,19.0,74,0.00,,,0.00,754,weatherlink.com 1.10,2014-04-17 18:22:00,
2014-04-17 11:37:00,60.7,52.0,29.64,WSW,249,20.0,20.0,74,0.00,,,0.00,782,weatherlink.com 1.10,2014-04-17 18:37:00,
2014-04-17 11:52:00,60.7,51.0,29.64,WSW,245,9.0,16.0,71,0.00,,,0.00,803,weatherlink.com 1.10,2014-04-17 18:52:00,
2014-04-17 12:22:00,59.4,51.0,29.64,South,190,7.0,18.0,73,0.00,,,0.00,840,weatherlink.com 1.10,2014-04-17 19:22:00,
2014-04-17 12:37:00,58.8,51.0,29.64,WSW,255,3.0,27.0,75,0.00,,,0.00,863,weatherlink.com 1.10,2014-04-17 19:37:00,
2014-04-17 12:52:00,58.1,50.0,29.63,WSW,245,11.0,23.0,75,0.00,,,0.00,867,weatherlink.com 1.10,2014-04-17 19:52:00,
2014-04-17 13:07:00,59.1,51.0,29.63,SSW,202,4.0,22.0,75,0.00,,,0.00,865,weatherlink.com 1.10,2014-04-17 20:07:00,
2014-04-17 13:22:00,60.0,52.0,29.63,SW,227,1.0,17.0,74,0.00,,,0.00,867,weatherlink.com 1.10,2014-04-17 20:22:00,
2014-04-17 13:37:00,61.7,52.0,29.63,NNW,336,12.0,15.0,71,0.00,,,0.00,868,weatherlink.com 1.10,2014-04-17 20:37:00,
2014-04-17 13:52:00,61.1,51.0,29.63,WSW,250,3.0,21.0,70,0.00,,,0.00,860,weatherlink.com 1.10,2014-04-17 20:52:00,